ATLAS 5 CENTAUR DEB, 49358

Orbit data source: Space-Track

ATLAS 5 CENTAUR DEB, 49358 is space debris in HEO originally from a launch on Wed, 17 Oct 2018 UTC launched from the Air Force Eastern Test Range (AFETR). Debris objects in space refer to the collection of defunct objects orbiting the Earth. Examples of debris include non-operational satellites, rocket bodies, and fragments generated from explosions, collisions, or faulty payload assembly.

Loading next visibility...
Identifier
49358, 2018-079FK
Orbit
HEO
Country
Flag of USUS
Related business
Flag of USUnited Launch Alliance/Lockheed Martin (US)
Manufacturer
ULA Decatur
Mission
Spacecraft
Bus & Motor
Unknown
Mass
Unknown
Launch date (UTC)
2018-10-17 (8 years ago)
Launch vehicle
Unknown
Launch site
Air Force Eastern Test Range (AFETR)
Object type
Payload
Rocket body
Debris
Shape & HBR
Unknown shape, 1.1 m
Radar Cross Section
Medium (>0.1 m² and <1 m²)

Expand to show TLE details & history
Last TLE update: 1 week ago

TLE from 1 week ago
0 ATLAS 5 CENTAUR DEB
1 49358U 18079FK  26227.65957358 -.00000159  00000-0  00000-0 0  9997
2 49358  13.4398  20.7045 4784426 346.4919   4.0658  1.83757055 33312
Epoch: 2026-08-15T15:49Z
TLE epoch observation values (Epoch: 2026-08-15T15:49:47.157Z)
Latitude
0.00001°
Longitude
179.21988°
Altitude
8,438.37 km
Speed
6.297 km/s
True Right ascension
01h 22m 56s
True Declination
0° 00' 00"
Sunlit
Object was in daylight at epoch
Visualization orbit readout
Latitude
Unknown
Longitude
Unknown
Altitude
Unknown
Speed
Unknown
Apparent Right ascension
Unknown
Apparent Declination
Unknown
Sunlit
N/A
Visualization observer readout
Local Sidereal Time
21:12:54
Azimuth
Unknown
Elevation
Unknown
Doppler factor
Unknown
Orbital elements
Apogee altitude
35,252.204 km
Perigee altitude
8,308.001 km
Semi-major axis
28,158.24 km
Eccentricity
0.47844
Inclination
13.4398°
RAAN
20.7045°
Arg. of periapsis
346.4919°
True anomaly
13.05146°
Mean anomaly
4.0658°
Eccentric anomaly
7.77364°
Mean motion
0.45934 °/min
Orbital period
783.73 mins
BSTAR
0
Loading maneuver chart data...
Computing Atmospheric mass density...

Documentation

Showing up to 5 results
|